Theta_e
301 300 301 301 303 303 303 303 303 302 302 302 304 303 300 300 300 301 302 303 304 304 304 304 304 305 306 306 307 307 308 311 313 315 314 312 314 316 318 319 323 329 328 329 332 334 334 334 335 339 333 336 343 345
301 301 301 301 302 303 303 303 303 304 303 303 303 305 303 300 299 301 302 303 304 304 304 304 303 305 305 306 306 306 307 308 310 314 314 315 318 319 323 320 320 323 325 328 330 333 332 331 333 329 330 332 331 342
303 303 303 302 302 302 302 302 303 303 304 304 304 304 305 303 300 300 301 303 304 304 305 304 305 303 304 305 304 305 306 306 308 309 310 313 315 316 324 325 321 320 320 327 330 329 330 330 327 327 330 327 328 330
305 305 304 304 303 303 303 303 303 303 304 304 304 305 305 305 301 299 301 304 303 303 305 304 304 305 306 306 306 305 305 305 306 307 310 311 312 313 319 315 315 317 317 327 332 329 330 331 329 332 335 334 328 328
306 305 305 305 305 304 304 304 304 304 304 305 304 306 306 306 304 300 299 303 303 304 305 305 303 303 305 305 306 306 306 305 305 307 308 309 310 311 311 312 313 316 321 323 325 321 324 324 324 331 337 338 339 339
308 308 308 307 306 306 305 305 305 304 305 304 304 306 306 306 305 301 304 305 304 305 304 306 305 305 305 307 306 306 307 306 306 307 307 308 307 309 312 312 314 314 315 315 316 318 320 320 321 332 332 335 338 339
310 309 309 308 308 307 306 306 306 306 305 306 306 306 306 306 306 302 305 304 304 304 304 305 306 308 310 307 308 308 306 307 307 308 308 308 309 309 310 312 311 312 312 313 315 315 317 319 321 329 329 334 338 340
311 311 310 309 308 308 308 308 307 306 306 307 306 307 307 306 306 305 303 303 304 303 303 306 306 306 310 310 309 309 309 308 308 308 309 309 309 309 310 310 311 312 311 312 314 315 316 322 323 327 328 334 338 345
312 312 311 310 309 309 309 308 307 307 307 307 308 307 306 306 305 304 304 304 303 303 304 305 308 312 311 311 311 310 311 312 310 309 309 309 309 310 309 309 310 311 312 312 315 316 319 319 323 325 327 329 335 341
314 313 312 311 310 309 309 308 308 307 307 308 307 306 306 306 306 305 303 303 302 302 301 302 305 307 308 310 312 311 310 311 311 310 309 310 310 309 309 309 309 310 309 311 312 317 321 322 323 324 325 331 333 339
315 313 312 311 310 309 309 308 307 307 309 309 308 307 308 307 306 304 304 302 300 302 300 302 303 304 305 308 312 311 312 313 314 313 311 312 311 310 309 309 309 309 309 310 312 316 319 321 323 323 330 331 334 340
315 311 310 309 308 308 308 308 310 310 310 309 308 308 307 306 306 306 305 302 302 305 301 302 304 305 307 308 311 311 312 312 315 313 315 316 314 314 316 315 311 309 311 312 313 315 318 322 323 324 330 333 336 339
314 310 310 309 310 310 311 313 314 314 312 310 309 309 309 309 309 307 310 306 305 300 301 302 307 306 304 306 309 310 310 312 308 313 315 315 313 311 311 315 319 312 311 312 314 318 322 322 327 333 335 337 338 335
314 312 313 313 314 313 312 315 316 316 314 314 315 315 315 317 315 314 314 317 316 307 304 306 308 309 308 309 309 307 308 305 311 314 313 311 309 310 311 317 318 322 323 320 324 323 321 331 335 334 334 333 333 333
317 314 314 314 315 316 316 317 318 317 316 316 314 315 316 316 318 320 321 321 318 311 307 308 308 308 309 306 304 306 309 313 311 311 306 308 311 318 322 321 320 321 323 326 322 328 331 332 332 333 333 333 334 334
317 316 314 315 316 317 319 319 319 319 319 317 318 319 320 321 320 320 319 319 319 314 310 313 313 315 314 311 311 311 312 313 312 312 313 314 315 317 320 322 323 323 326 327 328 328 328 329 329 329 330 330 331 331
317 317 315 315 315 316 320 320 320 320 319 319 320 320 320 320 321 320 319 319 319 318 319 318 319 319 318 318 320 320 322 318 317 316 315 316 316 316 317 317 317 319 320 324 324 325 326 326 323 321 318 320 322 324
317 317 316 315 314 315 320 320 320 320 320 319 321 319 320 321 320 321 321 319 317 317 318 317 318 321 321 323 323 321 321 320 317 316 315 315 316 316 315 316 316 316 316 317 317 318 320 321 323 324 324 324 321 320
318 317 317 315 316 320 321 320 320 322 320 319 320 320 320 321 320 320 320 320 319 318 317 318 320 321 321 320 320 320 320 320 319 318 318 318 317 317 317 318 317 315 315 316 317 317 316 317 318 317 320 322 323 323
318 317 317 316 318 321 322 321 321 320 321 321 320 319 319 318 318 318 318 318 319 319 318 319 319 318 318 319 318 318 318 319 319 319 319 319 319 320 320 320 319 319 319 320 318 318 318 318 318 317 318 317 316 318
319 318 318 319 321 322 321 320 321 321 321 322 320 319 320 319 319 319 318 318 318 319 319 317 318 316 314 313 317 317 317 318 319 319 319 319 319 318 318 318 318 317 317 317 318 318 318 318 318 318 316 317 318 319
318 318 319 325 324 323 322 321 319 320 323 322 320 319 320 320 319 317 317 317 316 315 316 317 312 314 313 311 312 313 316 314 315 316 317 317 317 316 315 315 317 317 317 316 316 316 317 317 318 316 317 317 316 317
318 322 326 327 324 322 321 319 317 315 320 319 321 321 321 319 317 316 316 315 316 314 313 313 314 312 311 310 310 311 312 314 312 312 313 314 315 315 311 311 310 310 310 311 312 314 314 315 316 316 318 318 318 318
321 322 326 323 322 322 323 321 317 314 316 318 322 322 321 317 318 317 316 314 314 313 312 312 311 311 311 311 309 308 308 310 312 311 310 310 311 310 309 308 307 306 306 307 307 307 308 310 312 312 314 315 316 316
324 322 324 319 321 322 323 323 323 322 323 322 323 322 318 315 318 316 313 309 311 311 310 311 309 309 309 309 309 307 307 307 308 310 310 308 308 307 306 304 304 303 303 303 303 304 304 304 306 307 309 312 314 316
310 323 320 317 318 322 321 319 318 318 318 320 320 319 318 315 312 311 308 308 309 310 308 309 309 307 307 306 306 306 305 305 305 306 308 307 305 305 304 302 301 302 302 301 301 302 301 300 301 303 304 306 308 310
318 322 319 318 318 316 318 316 315 315 316 317 316 314 314 310 309 308 308 309 309 308 308 310 311 306 305 305 305 304 303 303 304 304 306 304 303 302 302 301 300 300 301 300 300 301 300 300 300 301 302 304 305 308
321 322 323 320 320 319 320 317 317 316 316 316 313 310 310 311 311 310 308 307 308 311 310 310 307 305 304 303 303 302 302 302 301 302 301 301 300 300 300 300 300 300 300 300 300 300 299 299 300 301 302 302 303 304
321 319 320 320 316 317 319 318 317 315 315 314 312 312 310 309 308 309 310 311 311 311 309 306 304 304 302 302 302 302 301 300 299 298 298 298 297 297 297 298 298 298 298 299 299 299 299 299 299 300 300 300 300 300
317 317 322 321 320 320 319 318 316 314 313 312 311 310 310 311 311 311 311 311 309 307 306 305 303 302 301 301 301 301 301 300 298 297 297 296 296 295 296 296 296 296 297 297 298 298 298 298 298 298 298 298 298 298
317 318 321 322 321 320 319 318 316 315 314 313 313 313 312 312 312 311 310 308 307 306 305 304 302 301 301 301 300 299 299 299 298 296 296 295 294 294 295 295 295 295 296 296 297 297 297 297 297 297 297 297 297 297
322 318 317 322 323 321 320 320 320 318 317 315 315 312 311 311 313 310 308 307 306 305 304 302 302 301 300 300 299 298 299 298 297 296 295 295 293 293 294 293 293 294 295 296 296 295 295 295 295 295 295 295 295 295
318 316 316 318 322 322 322 321 320 319 318 317 316 314 312 313 310 309 308 306 305 304 303 301 302 301 300 299 298 298 298 297 297 296 295 294 294 294 294 293 293 294 295 294 294 294 294 294 295 295 294 295 295 295
Wind_Speed
24 25 24 23 22 23 24 23 23 24 23 25 23 20 17 15 13 10 10 8 12 9 26 23 20 23 20 16 5 16 12 12 7 6 4 4 4 5 6 8 7 3 3 2 2 3 3 12 11 5 6 11 17 20
26 25 26 25 23 23 24 25 24 25 24 23 22 20 19 16 13 11 11 7 11 18 19 23 23 21 22 21 22 20 10 3 3 4 4 4 4 5 7 9 5 5 3 3 5 4 5 13 8 17 20 18 25 19
29 28 27 26 26 25 24 24 25 25 25 22 21 20 16 16 13 12 12 10 10 14 24 23 23 16 17 21 18 22 18 14 4 2 5 2 4 5 5 5 7 13 20 4 8 9 13 23 19 23 29 22 23 23
30 30 29 28 27 27 26 26 26 26 26 24 18 18 15 14 13 11 8 6 12 7 6 12 14 20 15 18 23 23 26 23 11 12 10 3 3 7 3 7 9 7 15 8 5 16 23 20 37 35 32 25 22 24
31 31 29 29 28 28 28 28 28 28 26 23 16 18 15 14 12 12 12 10 12 11 7 16 32 18 18 17 19 22 26 21 19 13 7 7 12 9 11 9 11 6 1 3 4 20 12 25 36 33 28 28 24 23
32 31 30 29 28 27 27 27 26 26 25 18 16 18 16 13 11 7 4 3 17 18 4 4 13 31 19 11 21 25 21 28 23 18 12 18 23 12 5 4 4 15 17 20 17 28 30 33 37 27 31 27 24 25
32 31 29 28 27 26 26 25 24 24 22 22 22 18 13 13 13 9 5 2 3 7 3 5 5 3 6 17 17 17 25 17 20 20 18 18 20 18 10 15 22 19 26 25 32 33 33 30 29 31 31 29 28 28
31 30 28 26 24 24 24 24 23 22 22 25 20 15 13 12 13 16 14 17 9 5 5 3 5 7 5 5 9 11 14 20 23 19 18 13 17 15 8 12 20 20 23 27 30 31 33 30 29 26 30 30 27 2
31 29 27 25 23 21 21 22 22 22 23 19 12 5 3 7 7 11 14 14 16 13 4 4 2 3 2 3 6 5 3 2 8 8 12 8 10 9 17 27 30 22 21 27 25 28 25 29 27 26 28 29 24 8
31 28 26 24 22 20 19 19 22 22 18 9 6 2 3 4 8 5 1 6 9 7 8 4 6 5 8 7 4 3 4 3 3 6 8 10 16 38 36 30 29 26 32 32 30 30 27 24 24 25 28 26 25 17
30 27 24 20 19 18 18 20 20 19 10 5 3 2 6 4 4 3 4 5 7 3 6 7 14 11 12 5 2 2 1 3 3 4 5 4 12 21 44 40 42 36 39 40 34 31 25 27 22 26 27 28 16 11
28 25 20 19 19 20 18 16 18 16 7 7 8 11 5 2 3 3 3 1 4 4 4 4 6 8 4 4 3 2 3 3 6 5 3 4 3 14 16 23 45 46 40 38 34 30 28 26 25 26 26 21 11 18
25 21 19 17 18 19 17 16 19 18 12 3 3 3 2 1 3 3 3 3 3 5 7 7 3 4 5 7 3 2 4 5 6 4 4 4 15 32 33 28 11 39 44 39 32 27 25 27 23 21 14 18 24 30
20 17 17 19 20 17 13 16 20 23 8 5 5 5 3 4 4 5 4 8 3 11 16 9 3 5 8 5 1 3 2 2 3 3 4 4 23 34 40 28 19 11 15 21 18 17 20 13 11 22 28 32 32 29
17 15 16 16 17 17 16 18 19 17 5 4 6 5 4 10 20 20 22 20 9 12 19 6 3 3 1 1 2 2 2 3 2 3 3 18 33 19 13 17 15 14 12 7 7 14 19 19 23 29 32 34 30 29
16 14 15 14 13 18 18 16 14 6 4 4 4 5 14 10 17 27 28 27 29 7 9 5 3 3 3 3 1 2 4 3 3 3 9 23 44 39 37 36 29 26 25 27 31 30 33 31 32 29 28 27 27 24
17 12 14 11 13 14 12 14 4 5 5 5 4 12 15 20 19 25 27 23 23 24 7 5 6 5 3 4 4 3 5 6 2 14 15 21 32 40 40 41 45 45 42 43 36 36 32 28 25 25 24 15 20 17
15 13 13 12 13 14 8 8 4 2 3 6 6 23 15 20 24 25 21 28 26 23 7 4 8 5 4 6 7 8 19 18 14 17 22 26 27 31 39 39 42 46 41 37 35 32 33 33 30 27 24 17 20 16
15 11 9 10 14 5 3 2 5 3 5 7 9 7 19 19 24 24 25 21 22 16 15 7 5 5 6 11 17 22 22 19 15 9 10 10 18 21 26 29 37 41 41 33 30 30 35 30 26 21 18 26 18 16
10 8 9 8 8 4 4 2 5 2 4 3 11 18 18 18 22 23 26 26 18 17 14 7 8 18 22 28 27 29 31 26 25 23 21 32 32 18 15 21 26 21 15 14 25 21 16 17 14 16 21 19 17 13
8 5 10 7 3 2 3 4 4 1 2 5 5 12 11 14 16 20 22 22 21 24 17 21 22 27 29 33 25 24 30 33 30 28 26 20 26 32 35 29 26 32 36 34 33 17 18 14 13 11 10 14 11 10
9 8 6 5 3 2 3 2 8 12 7 6 6 4 7 6 12 16 20 21 22 21 26 19 26 24 27 30 31 33 22 29 28 27 26 25 26 29 32 31 27 25 30 31 30 29 29 26 12 17 10 15 13 7
10 8 5 2 3 3 2 12 4 7 6 16 10 5 4 4 3 7 6 17 16 26 30 29 22 25 25 28 28 30 35 20 25 24 22 21 21 21 28 26 30 32 32 30 30 28 30 30 23 22 18 11 12 12
7 5 4 5 2 4 3 5 7 5 4 2 2 2 5 12 5 9 5 12 23 25 28 27 26 22 22 24 26 27 30 30 24 25 22 23 26 23 22 22 24 30 25 21 24 29 24 22 20 21 19 18 19 15
3 2 3 7 8 3 2 4 2 3 0 3 2 4 4 4 4 4 4 14 22 25 27 24 27 23 24 23 21 23 23 25 26 23 22 18 20 23 23 25 22 28 25 22 24 26 24 19 17 21 24 22 17 14
1 2 4 5 5 10 8 6 8 8 6 4 5 5 3 4 4 4 4 14 16 16 20 21 22 23 22 24 23 23 23 24 19 23 20 18 21 22 21 22 22 24 23 20 21 22 22 23 21 19 18 20 20 13
2 3 4 5 4 2 5 11 11 11 5 5 4 5 4 5 4 2 5 5 7 7 15 20 20 18 21 21 21 20 18 21 17 22 18 18 18 21 23 23 22 20 17 18 16 16 19 21 18 17 16 16 20 15
18 17 13 18 6 3 3 6 5 6 6 5 5 5 3 2 2 3 3 5 14 19 20 21 15 18 18 19 18 17 17 13 10 14 18 24 24 19 17 15 17 18 18 19 16 13 15 15 13 13 14 17 15 16
10 16 6 5 6 3 5 5 4 4 5 4 4 3 4 3 4 1 8 12 17 21 14 17 19 17 17 17 17 17 16 16 18 21 24 25 26 24 19 16 19 17 15 14 15 14 13 10 12 12 11 15 11 14
5 9 4 7 6 2 5 5 8 8 10 11 13 13 9 4 1 3 7 11 15 15 16 16 16 16 16 16 16 16 17 13 14 15 18 17 18 16 14 17 16 14 14 11 12 17 11 11 9 10 12 14 14 15
3 3 3 6 3 7 8 8 8 9 10 11 8 10 6 1 3 3 7 9 12 13 14 15 13 13 13 15 15 16 13 10 12 17 21 20 16 11 14 15 11 11 13 15 13 13 11 13 14 14 14 13 12 11
4 2 10 3 4 8 9 6 5 5 6 7 7 9 7 4 1 4 10 11 11 11 12 15 11 9 9 10 11 12 11 10 16 17 23 24 23 18 14 15 15 14 14 13 12 14 13 12 12 12 12 12 13 13
4 10 8 2 7 9 10 7 6 5 7 6 5 10 6 4 4 4 7 13 9 8 10 12 10 10 10 10 13 13 13 11 12 15 17 20 23 20 14 18 17 16 14 14 13 13 14 13 12 12 12 11 11 12
Wind_Direction
327 325 324 323 326 327 328 333 333 331 325 333 335 333 331 335 337 298 291 227 255 267 281 278 287 297 309 307 298 325 353 12 350 1 339 278 275 285 302 304 303 234 169 219 283 181 246 30 42 75 231 320 35 37
326 325 323 321 321 322 323 326 328 330 328 325 328 329 326 326 330 319 285 295 248 247 261 282 281 267 267 272 292 303 289 311 336 3 8 315 331 331 333 283 318 262 285 254 189 210 308 4 44 345 355 1 6 20
321 320 319 320 319 319 319 321 322 324 323 322 316 320 316 317 317 315 301 257 269 275 288 273 275 275 265 260 258 276 273 276 208 285 279 292 290 348 327 16 332 344 16 336 10 7 329 317 316 331 332 317 332 344
320 318 315 314 314 314 315 316 318 319 321 320 315 311 311 302 306 303 288 268 249 263 283 287 284 289 272 253 246 245 259 267 276 266 252 264 283 281 297 302 301 303 320 305 287 12 343 356 350 344 338 336 308 313
320 317 317 315 312 311 312 313 314 316 318 317 292 310 302 296 293 292 282 242 254 232 293 302 298 289 274 263 248 235 240 244 244 246 235 248 247 268 278 286 275 265 309 14 328 326 327 320 329 334 341 343 342 342
322 319 316 315 315 314 314 313 314 316 318 317 303 295 295 287 277 297 314 228 227 241 268 298 288 285 275 267 232 244 236 226 232 242 252 257 260 248 271 265 268 292 317 334 311 311 308 307 318 327 333 331 324 324
328 325 320 316 315 315 314 315 318 318 316 315 314 301 278 273 255 211 231 143 197 260 264 278 260 294 268 230 233 240 238 232 224 238 245 259 265 259 253 256 268 273 281 294 289 297 301 315 308 315 321 326 327 321
331 330 329 323 318 317 317 318 320 321 319 319 317 298 276 253 250 244 250 237 237 258 266 268 279 289 273 260 206 250 231 224 231 235 242 245 258 256 261 253 267 264 272 266 271 281 281 294 306 311 320 330 330 234
333 333 333 332 326 321 320 322 324 328 326 325 329 328 206 229 227 243 257 234 222 213 240 239 258 298 306 245 213 238 274 142 253 238 230 236 245 235 231 235 249 255 260 279 277 285 274 288 303 310 318 324 328 341
339 338 335 334 332 329 329 332 331 333 332 349 8 17 267 238 247 263 287 169 185 210 228 247 237 254 337 354 225 183 211 228 230 222 232 231 243 248 253 252 249 248 246 250 261 263 269 282 299 308 314 316 308 281
343 346 345 346 349 347 343 341 334 338 356 353 326 266 282 293 225 234 213 188 182 228 225 242 228 248 264 261 276 206 273 281 253 236 215 235 245 243 247 243 243 245 248 251 255 267 260 281 292 302 306 307 307 173
348 353 356 357 358 352 358 354 349 350 329 304 289 290 284 259 243 261 240 200 211 233 224 219 222 207 248 228 211 200 247 213 244 345 235 249 248 333 330 274 233 231 235 240 244 253 262 267 280 285 288 291 266 179
350 358 2 8 8 4 5 10 6 358 346 7 322 276 219 217 279 216 287 221 240 196 219 211 181 160 208 211 217 243 242 243 340 230 229 246 327 319 312 297 256 226 228 236 245 255 253 267 287 271 223 155 155 135
348 360 10 9 11 4 0 10 2 352 17 1 318 317 2 316 268 246 268 302 299 182 189 181 144 215 205 189 79 242 243 300 272 259 262 302 295 282 280 257 218 212 198 207 220 241 252 257 182 148 149 132 130 131
343 348 4 14 15 10 7 5 356 348 359 8 343 343 338 296 311 344 9 19 50 153 158 168 163 187 53 258 207 288 269 264 253 291 280 309 303 323 134 160 175 179 183 169 210 178 144 140 142 124 124 127 124 129
345 350 6 11 10 1 3 6 351 355 1 38 327 336 337 2 14 23 18 15 18 183 193 203 147 206 179 208 255 279 311 332 292 279 307 17 23 42 65 80 100 102 114 118 113 120 120 113 113 113 119 120 124 126
339 343 346 337 341 352 352 7 1 325 34 345 320 19 24 30 26 36 34 18 17 22 6 1 7 1 313 349 312 317 44 31 23 52 37 49 56 56 58 64 73 79 80 91 92 98 101 100 96 95 82 88 85 97
338 332 334 343 335 335 1 7 349 37 56 316 11 28 26 39 36 29 20 18 31 20 13 8 325 350 2 7 29 9 42 59 97 95 77 72 70 70 76 74 73 71 73 76 80 83 83 82 79 82 92 90 85 78
336 334 336 342 356 354 316 323 16 328 194 51 356 22 43 48 43 35 30 30 30 34 39 25 26 10 33 20 31 36 49 65 67 80 57 68 88 87 85 83 88 82 76 83 81 76 76 84 84 78 82 82 94 90
331 332 336 342 359 341 296 30 338 340 6 21 67 82 62 57 60 49 40 40 39 34 41 42 47 50 42 45 51 52 52 60 68 67 66 64 65 69 66 67 61 62 63 72 87 96 96 86 89 118 108 105 95 87
324 328 342 339 344 308 294 311 304 332 351 359 337 90 82 61 50 49 47 42 47 44 46 46 49 46 41 44 45 42 53 48 44 46 54 65 60 53 52 71 74 47 50 55 62 75 85 69 61 150 112 96 97 128
338 336 330 350 328 304 295 27 334 320 286 232 186 102 113 115 92 68 46 43 46 38 26 39 48 43 39 34 35 38 51 59 53 44 48 49 55 63 58 52 51 40 42 41 40 36 44 58 62 112 93 91 72 108
13 17 2 316 311 319 78 27 320 5 336 325 319 150 159 115 94 92 75 34 27 26 25 26 35 42 39 31 31 31 30 44 46 42 37 45 49 61 63 61 52 41 38 37 34 31 36 52 54 46 66 94 43 50
9 353 316 313 250 241 234 167 169 182 219 257 275 28 13 21 249 91 79 26 12 13 23 20 22 29 32 37 38 23 18 22 33 35 30 37 49 59 50 50 48 40 33 30 34 27 24 35 47 34 29 35 35 30
343 329 330 355 306 285 43 347 233 231 144 192 7 52 44 43 17 48 41 349 0 356 5 15 20 25 29 25 31 30 22 18 20 27 32 37 38 39 47 47 47 38 25 27 28 19 13 19 28 27 29 32 33 39
46 137 144 150 330 311 5 29 13 8 11 35 33 24 53 57 52 41 16 360 13 13 29 17 6 15 23 21 23 28 31 19 13 14 20 48 46 44 47 44 34 29 24 22 21 15 14 14 16 15 15 22 21 30
261 173 202 127 122 85 334 35 22 21 28 31 23 21 41 61 46 300 273 307 331 342 344 3 354 25 22 16 22 25 32 30 22 13 61 54 58 50 46 41 30 20 13 17 20 17 14 6 7 12 10 16 18 29
351 327 53 98 86 303 293 47 18 9 30 46 75 42 76 63 53 258 275 334 340 350 357 3 27 31 26 22 25 28 27 20 12 32 48 44 36 32 26 22 20 13 10 4 10 10 23 14 11 10 13 23 38 36
315 310 326 59 55 348 348 43 47 40 36 87 100 91 102 157 169 315 339 335 335 333 2 26 27 23 21 20 27 30 31 30 34 31 24 16 9 5 5 10 2 359 360 1 358 357 16 24 15 22 17 23 13 34
227 302 316 94 41 335 39 93 111 91 81 95 104 110 115 122 215 322 345 344 354 26 21 18 25 28 20 18 22 21 29 39 48 41 27 14 358 354 3 2 3 359 352 353 359 353 3 14 15 19 32 33 39 33
177 287 257 91 110 113 129 124 128 123 113 118 113 109 101 25 326 345 348 13 14 17 20 13 26 31 28 22 22 18 22 28 21 14 19 14 8 8 13 358 360 8 5 3 9 17 23 23 22 26 22 22 23 23
218 342 4 111 129 142 144 149 166 171 155 139 115 134 95 203 252 37 24 13 12 21 20 12 17 32 31 24 20 11 2 343 0 9 12 15 19 18 15 7 17 16 9 15 29 29 34 29 32 34 33 31 25 21
93 60 7 119 158 179 183 177 189 139 138 162 140 171 145 140 78 52 19 15 19 30 28 17 26 27 25 24 15 16 357 353 4 9 19 21 15 9 17 24 37 26 27 33 36 41 44 49 50 46 43 32 18 7